[[{"header":{"parameterUnit":"m.s-1","parameterCategory":1,"la1":30.2991,"la2":30.254,"lo1":-89.0895,"lo2":-89.0444,"dy":0.0017,"dx":0.0017,"nx":28,"ny":28,"refTime":"2024-03-20T09:00:00:Z","depth":0,"parameterNumber":2,"parameterNumberName":"U-component_of_WINDS"},"data":[0,0,0,0,0,0,0,0,0,0,0,0,0,0,0,0,0,0,0,0,0,0,0,0,0,0,0,0,0,0,0,0,0,0,0,0,0,0,0,0,0,0,0,0,0,0,0,0,0,0,0,0,0,0,0,0,0,0,1.5476,1.5476,0,1.5538,1.5539,1.554,1.5549,1.5549,1.5548,1.5547,1.5612,1.5614,1.5616,0,0,0,0,0,0,0,0,0,0,0,0,0,1.5363,1.5365,1.5475,1.5476,1.5477,1.5538,1.5539,1.554,1.5549,1.5549,1.5548,1.5547,1.5611,1.5613,1.5616,0,0,0,0,0,0,0,0,0,0,0,0,0,1.5417,1.5365,1.5475,1.5489,1.5491,1.5538,1.5539,1.554,1.5549,1.5549,1.5548,1.5547,1.561,1.5613,1.5616,1.5654,0,0,1.5627,1.5628,0,0,0,0,0,0,0,0,1.5414,1.5421,1.5486,1.5488,1.549,1.5535,1.5523,1.5578,1.555,1.5527,1.5547,1.5546,1.5587,1.5592,1.5606,1.5657,1.566,1.5627,1.5629,1.563,1.5631,0,0,0,0,0,0,0,1.541,1.5419,1.55,1.5487,1.549,1.5492,1.5499,1.5533,1.5561,1.5529,1.553,1.5537,1.5588,1.5602,1.5607,1.5661,1.5627,1.563,1.5632,1.5633,1.5743,1.5744,0,0,0,0,0,0,1.5404,1.5415,1.5498,1.5502,1.5449,1.5494,1.5502,1.5522,1.5561,1.5566,1.5538,1.5537,1.5597,1.5603,1.5609,1.5654,1.563,1.5634,1.5635,1.5743,1.5744,1.5745,0,0,0,0,0,0,1.5402,1.5411,1.5496,1.5459,1.547,1.5497,1.5519,1.5523,1.5538,1.5567,1.5572,1.5548,1.5597,1.5605,1.5642,1.5656,1.5635,1.5638,1.5741,1.5743,1.5744,1.5745,0,0,0,0,0,0,1.5398,1.541,1.5425,1.5459,1.5472,1.5528,1.552,1.5525,1.5544,1.5544,1.5578,1.5583,1.5597,1.5637,1.5646,1.5661,1.5641,1.574,1.5742,1.5744,1.5744,1.5746,1.5748,0,0,0,0,0,1.5394,1.5424,1.5426,1.5436,1.5491,1.5529,1.5536,1.5551,1.5545,1.5559,1.5578,1.5582,1.5654,1.5641,1.565,1.5667,1.5739,1.5742,1.5744,1.5743,1.5746,1.5748,0,0,0,0,0,0,1.5391,1.5428,1.5432,1.5473,1.5497,1.553,1.555,1.5554,1.5582,1.558,1.5598,1.5606,1.5642,1.5659,1.5644,1.5704,1.5696,1.57,1.5692,1.5695,1.5697,1.5692,1.5643,0,0,0,0,0,1.5395,1.5423,1.5454,1.5487,1.5499,1.5522,1.5539,1.5549,1.5575,1.5586,1.5607,1.5632,1.5661,1.5679,1.5707,1.5746,1.5753,1.5762,1.5764,1.5766,1.5769,1.5789,1.5793,1.5752,1.5752,1.5751,0,0,1.5404,1.5427,1.5444,1.5487,1.5507,1.5535,1.5531,1.5561,1.5581,1.559,1.5627,1.5643,1.5672,1.571,1.5728,1.5725,1.5782,1.5769,1.577,1.5772,1.5792,1.5796,1.5799,1.5753,1.5753,1.5752,0,0,1.5433,1.5455,1.5484,1.5504,1.5534,1.5549,1.5556,1.5588,1.5599,1.5636,1.5643,1.5667,1.5716,1.5736,1.5752,1.5787,1.5791,1.5796,1.5808,1.5827,1.583,1.5833,1.5844,1.5848,1.5799,1.5799,1.5799,0,1.544,1.5482,1.5498,1.5527,1.5545,1.5554,1.5583,1.5602,1.564,1.5652,1.5648,1.5708,1.5728,1.577,1.5778,1.5792,1.58,1.5792,1.5829,1.5832,1.5835,1.5845,1.585,1.58,1.5799,1.5799,1.5799,0,1.5488,1.5517,1.5537,1.5572,1.5593,1.5622,1.5641,1.566,1.5667,1.5682,1.5719,1.5743,1.5775,1.5786,1.5794,1.5829,1.5826,1.5825,1.5817,1.5839,1.5849,1.5853,1.58,1.58,1.58,1.58,0,0,1.5517,1.556,1.5567,1.5583,1.5617,1.5639,1.5668,1.5699,1.5714,1.5739,1.5763,1.5803,1.5802,1.5821,1.5831,1.5848,1.5872,1.5845,1.5846,1.5848,1.591,1.5909,1.5914,1.5875,1.5876,1.5877,1.5907,0,1.5549,1.5601,1.5615,1.5658,1.5684,1.5693,1.5718,1.574,1.5755,1.5779,1.5795,1.5822,1.582,1.5831,1.5848,1.5866,1.5885,1.5864,1.5896,1.5897,1.5887,1.592,1.592,1.5947,1.5911,1.5912,1.5912,0,1.5594,1.5619,1.5665,1.5694,1.5705,1.5727,1.5756,1.5779,1.5805,1.5814,1.5834,1.5842,1.5871,1.5862,1.5902,1.5887,1.5902,1.5912,1.5913,1.5916,1.5905,1.5922,1.5956,1.596,1.5919,1.5919,1.5918,0,1.5608,1.5654,1.5687,1.57,1.5735,1.575,1.5766,1.579,1.5808,1.5833,1.5844,1.5872,1.5887,1.5908,1.5924,1.5916,1.5961,1.5954,1.5969,1.5968,1.5977,1.5976,1.6013,1.5989,1.5988,1.5988,1.5988,0,1.5642,1.5669,1.5694,1.5714,1.5744,1.576,1.5789,1.5805,1.5827,1.5849,1.5859,1.588,1.5899,1.5922,1.5935,1.5965,1.5972,1.5979,1.5982,1.5978,1.5977,1.5987,1.5985,1.5989,1.5989,1.5989,1.5989,0,1.5663,1.5681,1.5717,1.5747,1.5755,1.5775,1.5801,1.582,1.5834,1.5863,1.587,1.5893,1.592,1.5938,1.5973,1.5982,1.6014,1.6017,1.6005,1.6006,1.6019,1.6017,1.6063,1.6069,1.6041,1.6042,1.6042,0,1.5683,1.5703,1.5735,1.5751,1.5766,1.5791,1.5808,1.5825,1.5842,1.5872,1.5888,1.5916,1.5939,1.5983,1.6002,1.6029,1.6031,1.6045,1.6035,1.603,1.603,1.6028,1.6029,1.6047,1.6047,1.6047,1.6047,0,1.5715,1.5722,1.5747,1.5774,1.5794,1.5817,1.5839,1.5851,1.5871,1.589,1.5919,1.5937,1.5972,1.5999,1.6028,1.6043,1.6048,1.605,1.6055,1.605,1.6042,1.6045,1.6008,1.6049,1.6049,1.6049,1.6049,1.6049,1.5735,1.5753,1.5778,1.5804,1.5823,1.5843,1.5862,1.5879,1.5902,1.5932,1.5941,1.597,1.5993,1.6032,1.6047,1.607,1.6068,1.6075,1.6076,1.6078,1.6077,1.6039,1.6075,1.6075,1.6075,1.6075,1.6075,0,1.5766,1.5782,1.5807,1.5837,1.5858,1.5861,1.5886,1.5902,1.5928,1.595,1.5972,1.6003,1.603,1.6051,1.6078,1.6091,1.6094,1.6098,1.6096,1.6099,1.6078,1.607,1.6095,1.6095,1.6095,1.6095,1.6095,1.6095,1.5785,1.5815,1.5826,1.5865,1.5881,1.5909,1.5923,1.5941,1.5958,1.5993,1.6015,1.6028,1.6049,1.6078,1.6101,1.6107,1.6116,1.6118,1.6124,1.6103,1.6101,1.6099,1.6092,1.612,1.6121,1.6144,1.6144,1.6144]},{"header":{"parameterUnit":"m.s-1","parameterCategory":1,"la1":30.2991,"la2":30.254,"lo1":-89.0895,"lo2":-89.0444,"dy":0.0017,"dx":0.0017,"nx":28,"ny":28,"refTime":"2024-03-20T09:00:00:Z","depth":0,"parameterNumber":3,"parameterNumberName":"V-component_of_WINDS"},"data":[0,0,0,0,0,0,0,0,0,0,0,0,0,0,0,0,0,0,0,0,0,0,0,0,0,0,0,0,0,0,0,0,0,0,0,0,0,0,0,0,0,0,0,0,0,0,0,0,0,0,0,0,0,0,0,0,0,0,2.7906,2.7906,0,2.7913,2.7913,2.7913,2.7908,2.7908,2.7908,2.7907,2.7913,2.7914,2.7914,0,0,0,0,0,0,0,0,0,0,0,0,0,2.7888,2.7888,2.7906,2.7906,2.7906,2.7913,2.7913,2.7913,2.7908,2.7908,2.7908,2.7907,2.7913,2.7914,2.7914,0,0,0,0,0,0,0,0,0,0,0,0,0,2.7895,2.7888,2.7906,2.7904,2.7904,2.7913,2.7913,2.7913,2.7908,2.7908,2.7907,2.7907,2.7913,2.7914,2.7914,2.7924,0,0,2.7916,2.7916,0,0,0,0,0,0,0,0,2.7895,2.7896,2.7905,2.7905,2.7905,2.7909,2.7908,2.7916,2.7908,2.7907,2.7907,2.7907,2.7912,2.7913,2.7915,2.7924,2.7924,2.7916,2.7916,2.7916,2.7916,0,0,0,0,0,0,0,2.7894,2.7895,2.7908,2.7905,2.7905,2.7903,2.7904,2.791,2.7911,2.7907,2.7906,2.7907,2.7912,2.7914,2.7915,2.7924,2.7916,2.7916,2.7917,2.7917,2.7941,2.7942,0,0,0,0,0,0,2.7894,2.7895,2.7908,2.7909,2.7899,2.7904,2.7905,2.7908,2.7911,2.7911,2.7908,2.7907,2.7913,2.7914,2.7915,2.7926,2.7916,2.7917,2.7917,2.7941,2.7941,2.7942,0,0,0,0,0,0,2.7894,2.7895,2.7908,2.7902,2.7903,2.7904,2.7908,2.7908,2.791,2.7912,2.7912,2.791,2.7913,2.7914,2.7922,2.7926,2.7917,2.7918,2.7941,2.7941,2.7942,2.7948,0,0,0,0,0,0,2.7893,2.7895,2.7899,2.7902,2.7904,2.7915,2.7909,2.7909,2.7911,2.7911,2.7914,2.7914,2.7913,2.7921,2.7922,2.7927,2.7918,2.794,2.7941,2.7941,2.7948,2.7949,2.795,0,0,0,0,0,2.7892,2.79,2.7899,2.7901,2.7909,2.7915,2.7916,2.7915,2.7912,2.7915,2.7916,2.7914,2.7926,2.7922,2.7923,2.7928,2.794,2.7941,2.7941,2.7947,2.7949,2.795,0,0,0,0,0,0,2.7898,2.7901,2.7899,2.7909,2.7912,2.7914,2.7919,2.7917,2.7921,2.792,2.7919,2.792,2.7927,2.7928,2.7924,2.7937,2.7932,2.7933,2.7936,2.7937,2.7939,2.7938,2.7918,0,0,0,0,0,2.79,2.7905,2.7908,2.7915,2.7917,2.7918,2.7921,2.792,2.7923,2.7924,2.7925,2.7928,2.7932,2.7935,2.7939,2.7948,2.7948,2.7952,2.7953,2.7954,2.7955,2.7959,2.7961,2.7944,2.7944,2.7944,0,0,2.7905,2.7907,2.791,2.7917,2.7919,2.7924,2.7919,2.7924,2.7928,2.7925,2.7931,2.7933,2.7935,2.7944,2.7947,2.7945,2.796,2.7955,2.7956,2.7956,2.796,2.7962,2.7963,2.7945,2.7945,2.7945,0,0,2.7915,2.7918,2.7925,2.7927,2.7931,2.7931,2.7933,2.7936,2.7936,2.7943,2.7941,2.7945,2.7952,2.7954,2.7956,2.7968,2.7966,2.7969,2.7976,2.798,2.7981,2.7982,2.7986,2.7987,2.797,2.797,2.797,0,2.7921,2.7929,2.7928,2.7934,2.7937,2.7934,2.7941,2.7943,2.7947,2.7949,2.7947,2.7956,2.7958,2.7966,2.7969,2.7971,2.7972,2.7969,2.7981,2.7982,2.7983,2.7987,2.7988,2.7971,2.7971,2.7971,2.7971,0,2.7934,2.794,2.7945,2.795,2.7953,2.7959,2.7959,2.7963,2.7962,2.7962,2.7969,2.7971,2.7976,2.7978,2.7977,2.7986,2.7984,2.7981,2.7976,2.7985,2.7988,2.799,2.7971,2.7971,2.7971,2.7971,0,0,2.7948,2.7953,2.7955,2.7957,2.796,2.7965,2.797,2.7975,2.7977,2.7981,2.7985,2.7992,2.7989,2.7992,2.7991,2.7995,2.8003,2.7991,2.7992,2.7993,2.8013,2.8014,2.8016,2.8002,2.8002,2.8002,2.8012,0,2.7959,2.797,2.797,2.7979,2.7984,2.7982,2.7987,2.7989,2.799,2.7994,2.7995,2.7999,2.7996,2.7997,2.8001,2.8002,2.8007,2.8001,2.8006,2.8006,2.8004,2.8018,2.802,2.8029,2.8014,2.8014,2.8014,0,2.7973,2.7977,2.7987,2.799,2.7992,2.7996,2.8,2.8004,2.8007,2.8007,2.801,2.8009,2.8014,2.801,2.8017,2.8013,2.8015,2.8015,2.8016,2.8016,2.801,2.8018,2.8032,2.8033,2.8016,2.8016,2.8016,0,2.7981,2.7989,2.7996,2.7998,2.8002,2.8005,2.8006,2.8009,2.8012,2.8015,2.8017,2.8021,2.8023,2.8026,2.8025,2.8022,2.8033,2.8028,2.8033,2.8033,2.8034,2.8034,2.8049,2.8037,2.8037,2.8037,2.8037,0,2.7993,2.7999,2.8,2.8004,2.8011,2.8011,2.8017,2.8019,2.8021,2.8025,2.8023,2.8027,2.8027,2.8031,2.803,2.8036,2.8037,2.8037,2.8037,2.8037,2.8037,2.8038,2.8037,2.8037,2.8037,2.8037,2.8037,0,2.8003,2.8004,2.8012,2.8015,2.8015,2.802,2.8022,2.8026,2.8027,2.8032,2.8033,2.8034,2.8039,2.8039,2.8044,2.8044,2.8051,2.805,2.805,2.805,2.8054,2.8053,2.8069,2.8071,2.8058,2.8058,2.8059,0,2.801,2.8015,2.8018,2.8021,2.8023,2.8028,2.803,2.803,2.8033,2.8037,2.804,2.8044,2.8048,2.8055,2.8056,2.806,2.8059,2.8064,2.8059,2.8059,2.8058,2.8058,2.8058,2.8065,2.8065,2.8065,2.8065,0,2.8022,2.8023,2.8027,2.8031,2.8035,2.8038,2.8041,2.8043,2.8044,2.8047,2.8051,2.8054,2.8059,2.8063,2.8067,2.8068,2.8067,2.8067,2.8068,2.8068,2.8067,2.8067,2.8052,2.8066,2.8066,2.8066,2.8066,2.8066,2.8031,2.8035,2.8038,2.8043,2.8045,2.8048,2.8052,2.8053,2.8057,2.8061,2.8061,2.8066,2.8068,2.8073,2.8075,2.8079,2.8077,2.8078,2.8079,2.8079,2.8079,2.8067,2.8079,2.8079,2.8079,2.8079,2.8079,0,2.8042,2.8044,2.8049,2.8053,2.8057,2.8055,2.8059,2.8062,2.8066,2.8069,2.8072,2.8077,2.8081,2.8083,2.8087,2.8089,2.8089,2.809,2.809,2.809,2.8081,2.8079,2.8091,2.8091,2.8091,2.8091,2.8091,2.8091,2.8049,2.8055,2.8056,2.8064,2.8065,2.807,2.8072,2.8075,2.8077,2.8083,2.8086,2.8088,2.809,2.8094,2.8097,2.8097,2.8098,2.81,2.81,2.8092,2.8091,2.8089,2.8088,2.8101,2.8101,2.8109,2.8109,2.8109]}]]